Location: Bieg
(49.3499°N, 10.3835°E)
Time: 10:11:03
(UTC+00:00)

Cosmos 1346 Rocket - Pass Details

Date: 17 August 2024
Orbit: 503 x 516 km, 81.2° (Epoch: 10 September)

Event Time Altitude Azimuth Distance (km) Brightness Sun altitude
Exits shadow 01:43:31 48° 278° (W) 666 3.0 -20.1°
Maximum altitude 01:43:39 48° 286° (WNW) 664 3.0 -20.1°
Drops below altitude 10° 01:47:20 10° 2° (N) 1,728 6.1 -19.7°
Sets 01:49:32 0° 8° (N) 2,619 7.3 -19.5°
